星链-3848 (STARLINK-3848 )

导读 | 星芒AI

STARLINK-3848 是 SpaceX Starlink 项目中的一颗低轨通信卫星,属于第 11 批组网卫星(Batch 11),于 2021 年 11 月 19 日由猎鹰 9 号火箭成功送入近地轨道。该卫星采用 SpaceX 自主设计的星链卫星平台,配备先进通信设备和离子推进系统,旨在为全球提供高速、低延迟的互联网服务。作为星链星座的一部分,STARLINK-3848 与其他卫星协同工作,支持偏远地区的宽带接入,推动全球互联网覆盖的普及与优化。

基本信息
目录编号:
52362
目录名称:
STARLINK-3848
国际标识:
2022-045AH
轨道中心:
EARTH
卫星名称:
星链-3848
卫星全名:
星链-3848 (STARLINK-3848 )
卫星状态:
在轨 (已飞行1285 天)
发射日期:
2022-04-29 UTC
国别 :
美国 (US)
星等 :
--
轨道信息
数据来源 国际轨道数据
星历时间: 2025-11-04T22:12:11+0800
6小时前
查看轨道信息
半长轴: 6917.9km
偏心率: 0.0001336
轨道倾角: 53.218°
近地点辐角 97.342°
升交点赤经 30.707°
平近点角 262.772°
近地点: 538.84km
远地点: 540.69km
周期: 95.438分钟
每日圈数: 15.088339
详细信息
固有亮度:
5
最大亮度:
2.5
卫星平台:
Starlink v1.5
覆盖范围:
全球
运营商:
太空探索技术公司
运营商所在国:
美国
制造商(研发单位):
太空探索技术公司
制造商所在国:
美国
使用方式:
暂无
卫星简介
星链(Starlink)计划是由太空探索技术公司(SpaceX)提出的一个巨型低轨卫星互联网星座项目,计划在2019年至2024年间在太空搭建由约1.2万颗卫星组成的“星链”网络,其中1584颗将部署在地球上空550千米处的近地轨道,并从2020年开始工作。该卫星仍在工作。
2D轨道图
3D轨道图
轨道高度分析图
轨道倾角分析图
轨道综合分析图
查看轨道综合分析图